Regional Weather Roundup
Issued by NWS Green Bay, WI

Home | Current Version | Previous Version | Text Only | Print | Product List | Glossary On
Versions: 1 2 3 4 5 6 7 8 9 10 11 12 13 14 15 16 17 18 19 20 21 22 23 24 25 26 27 28 29 30 31 32 33 34 35 36 37 38 39 40 41 42 43 44 45 46 47 48 49 50
000
ASUS43 KGRB 221001
RWRGRB

NORTH-CENTRAL AND NORTHEAST WISCONSIN REGIONAL WEATHER ROUNDUP
NATIONAL WEATHER SERVICE GREEN BAY WI
500 AM CDT SAT JUL 22 2017

WIZ005-009-010>012-018-019-221100-
NORTH CENTRAL WISCONSIN

CITY           SKY/WX    TMP DP  RH WIND       PRES   REMARKS
IRONWOOD       CLOUDY    64  64 100 CALM      29.82S
MANITOWISH WTR CLOUDY    66  66 100 CALM      29.83S
ARBOR VITAE    NOT AVBL
EAGLE RIVER    NOT AVBL
LAND O LAKES   CLOUDY    65  63  94 CALM      29.85F
RHINELANDER    CLOUDY    61  61 100 E3        29.84R
PHILLIPS       CLOUDY    64  64 100 CALM      29.82R
ANTIGO         CLOUDY    63  62  96 SE3       29.82S
TOMAHAWK       NOT AVBL
MERRILL        CLOUDY    65  65 100 CALM      29.81F
$$

WIZ013-073-221100-
NORTHEAST WISCONSIN

CITY           SKY/WX    TMP DP  RH WIND       PRES   REMARKS
IRON MOUNTAIN  CLOUDY    65  60  84 SE3       29.82S
MARINETTE      CLOUDY    69  61  75 SW3       29.83S
$$

WIZ017-030-035>037-045-221100-
CENTRAL WISCONSIN

CITY           SKY/WX    TMP DP  RH WIND       PRES   REMARKS
MEDFORD        NOT AVBL
WAUSAU         CLOUDY    66  65  96 SE7       29.79S
MOSINEE        CLOUDY    64  64 100 SE5       29.82R FOG
MARSHFIELD     FOG       67  65  93 S6        29.80R VSB 3/4
WISC RAPIDS    CLOUDY    66  66 100 VRB3      29.81R FOG
STEVENS POINT  NOT AVBL
WAUPACA        NOT AVBL
SHAWANO        CLOUDY    68  59  73 CALM      29.80F
CLINTONVILLE   CLOUDY    64  57  77 E3        29.80F
WAUTOMA        CLOUDY    65  64  97 NE5       29.80S
$$

WIZ038-039-048-051-221100-
FOX VALLEY

CITY           SKY/WX    TMP DP  RH WIND       PRES   REMARKS
NWS GREEN BAY  CLOUDY    67  64  90 CALM      29.81R
APPLETON       NOT AVBL
OSHKOSH        CLOUDY    67  61  81 CALM      29.79R
FOND DU LAC    CLOUDY    67  60  78 CALM      29.79S
$$

WIZ022-050-052-221100-
EAST CENTRAL WISCONSIN

CITY           SKY/WX    TMP DP  RH WIND       PRES   REMARKS
EPHRAIM        CLOUDY    66  62  89 CALM      29.83S
WASHINGTON ISL FAIR      66  62  87 CALM      29.82F
STURGEON BAY     N/A     67  63  87 CALM      29.85R
MANITOWOC      NOT AVBL
SHEBOYGAN      CLOUDY    66  65  96 NE3       29.78F
$$

LMZ563-521-522-541>543-221100-
LAKESHORE

STATION/POSITION TIME  TEMP    WIND        PRES    VSBY  WAVE
                       AIR SEA DIR/SP/G                  HT/PER
                 (UTC) (F)     (DEG/KT/KT) (MB)    (MI)  (FT/S)
SHEBOYGAN LKSHOR 0900   67      80/  8/  9 1008.4F
KEWAUNEE LKSHORE 0924   68     120/  2/  3 1008.7
NORTHPORT PIER   0940   68     140/  1/  3 1010.2F
N MID LAKE BUOY  0850   68 66  230/  4/  6 1011.4R         1/ 3
S GREEN BAY BUOY 0930   71 73  190/  8/ 12 1009.6F
SISTER BAY LKSHO 0917   68     140/  3/  5   N/A
CHAMBERS ISLAND  0940   69      CALM  /  2 1009.5S
MENOMINEE LKSHOR 0924   70     230/  5/  7 1009.8
$$




USA.gov is the U.S. government's official web portal to all federal, state and local government web resources and services.